TimeCST,TemperatureF,Dew PointF,Humidity,Sea Level PressureIn,VisibilityMPH,Wind Direction,Wind SpeedMPH,Gust SpeedMPH,PrecipitationIn,Events,Conditions,WindDirDegrees,DateUTC
12:53 AM,39.0,28.0,65,30.17,10.0,North,3.5,-,N/A,,Clear,350,2012-11-25 06:53:00
1:53 AM,37.9,28.0,68,30.17,10.0,North,4.6,-,N/A,,Clear,360,2012-11-25 07:53:00
2:53 AM,39.0,27.0,62,30.18,10.0,North,4.6,-,N/A,,Clear,10,2012-11-25 08:53:00
3:53 AM,37.9,28.0,68,30.18,10.0,Calm,Calm,-,N/A,,Clear,0,2012-11-25 09:53:00
4:53 AM,35.1,28.0,76,30.18,10.0,North,4.6,-,N/A,,Clear,10,2012-11-25 10:53:00
5:53 AM,36.0,28.0,73,30.19,10.0,North,4.6,-,N/A,,Clear,10,2012-11-25 11:53:00
6:53 AM,37.9,30.0,73,30.22,10.0,NNE,3.5,-,N/A,,Clear,30,2012-11-25 12:53:00
7:53 AM,46.0,30.0,54,30.24,10.0,East,5.8,-,N/A,,Clear,90,2012-11-25 13:53:00
8:53 AM,51.1,30.9,46,30.26,10.0,Variable,4.6,-,N/A,,Clear,0,2012-11-25 14:53:00
9:53 AM,54.0,27.0,35,30.25,10.0,East,4.6,-,N/A,,Clear,80,2012-11-25 15:53:00
10:53 AM,57.0,26.1,30,30.23,10.0,Variable,5.8,-,N/A,,Clear,0,2012-11-25 16:53:00
11:53 AM,57.9,25.0,28,30.19,10.0,Calm,Calm,-,N/A,,Clear,0,2012-11-25 17:53:00
12:53 PM,60.1,30.9,33,30.17,10.0,South,6.9,-,N/A,,Clear,180,2012-11-25 18:53:00
1:53 PM,61.0,37.0,41,30.16,10.0,South,8.1,-,N/A,,Clear,180,2012-11-25 19:53:00
2:53 PM,60.1,39.0,46,30.15,10.0,SSE,9.2,-,N/A,,Clear,150,2012-11-25 20:53:00
3:53 PM,59.0,39.9,49,30.14,10.0,South,6.9,-,N/A,,Clear,170,2012-11-25 21:53:00
4:53 PM,53.1,41.0,64,30.14,10.0,South,4.6,-,N/A,,Clear,170,2012-11-25 22:53:00
5:53 PM,51.1,42.1,71,30.15,10.0,Calm,Calm,-,N/A,,Clear,0,2012-11-25 23:53:00
6:53 PM,50.0,43.0,77,30.16,10.0,Calm,Calm,-,N/A,,Clear,0,2012-11-26 00:53:00
7:53 PM,48.9,44.1,83,30.17,10.0,Calm,Calm,-,N/A,,Clear,0,2012-11-26 01:53:00
8:53 PM,46.9,43.0,86,30.17,10.0,Calm,Calm,-,N/A,,Clear,0,2012-11-26 02:53:00
9:53 PM,46.9,43.0,86,30.16,10.0,Calm,Calm,-,N/A,,Clear,0,2012-11-26 03:53:00
10:53 PM,46.0,43.0,89,30.16,10.0,Calm,Calm,-,N/A,,Clear,0,2012-11-26 04:53:00
11:53 PM,45.0,41.0,86,30.15,10.0,Calm,Calm,-,N/A,,Clear,0,2012-11-26 05:53:00